Simultaneous Nadir Overpasses (SNOs) Predictions

Prediction of SNOs between NOAA-19 and TERRA Satellite Orbit:

Table of predicted SNOs for the next 14.0 days since TLE Epoch: 10/13/2013
Index Date (NOAA-19) Time (NOAA-19) Lat,Lon (NOAA-19) SZA (NOAA-19 ) Date (TERRA) Time (TERRA) Lat,Lon (TERRA) SZA (TERRA ) Distance(km) Time Diff (sec)
1 10/15/2013 05:54:52 69.86, 91.59 78.38 10/15/2013 05:55:21 69.85, 91.63 78.38 1.35 29
2 10/15/2013 06:45:48 -69.70,-100.91 101.76 10/15/2013 06:44:52 -69.69,-100.96 101.78 2.24 56
3 10/17/2013 10:39:04 69.83, 20.60 79.17 10/17/2013 10:39:37 69.84, 20.54 79.17 2.32 33
4 10/17/2013 11:30:02 -69.75,-172.02 100.91 10/17/2013 11:29:07 -69.73,-171.97 100.93 2.57 55
5 10/19/2013 15:23:17 69.87, -50.49 80.00 10/19/2013 15:23:52 69.89, -50.45 80.03 3.18 35
6 10/19/2013 16:14:15 -69.75, 116.94 100.11 10/19/2013 16:13:23 -69.74, 116.96 100.13 1.77 52
7 10/21/2013 20:07:29 69.86,-121.51 80.77 10/21/2013 20:08:09 69.86,-121.58 80.77 2.71 40
8 10/21/2013 20:58:28 -69.76, 45.89 99.31 10/21/2013 20:57:39 -69.76, 45.92 99.32 1.09 49
9 10/24/2013 00:51:42 69.90, 167.39 81.59 10/24/2013 00:52:25 69.89, 167.40 81.58 1.65 43
10 10/24/2013 01:42:41 -69.77, -25.17 98.53 10/24/2013 01:41:55 -69.79, -25.10 98.51 3.36 46
11 10/26/2013 05:35:54 69.90, 96.35 82.35 10/26/2013 05:36:42 69.88, 96.32 82.33 2.62 48
12 10/26/2013 06:26:54 -69.79, -96.23 97.75 10/26/2013 06:26:12 -69.79, -96.18 97.76 1.92 42
